CKS379 KLAX-KDEN

Flight info

Callsign CKS379
Flight time 1h 44m
Altitude 33000
Route ORCKA5 LAS J146 DICEE BUMMP SSKII4
Aircraft B77L/H-SDE1E2E3FGHIJ2J3J4J5M1RWXY/LB1D1

Departure

Time 2026-04-22 01:18
Airport Los Angeles International Airport (KLAX)

Arrival

Time 2026-04-22 03:03
Airport Denver International Airport (KDEN)
Time Latitude Longitude Altitude Speed Heading
2026-04-22 00:54 33.93264 -118.38212 130 ft 0 kts 231°
2026-04-22 01:06 33.93276 -118.38194 124 ft 3 kts 238°
2026-04-22 01:06 33.93288 -118.38170 139 ft 3 kts 245°
2026-04-22 01:06 33.93297 -118.38143 125 ft 3 kts 269°
2026-04-22 01:06 33.93293 -118.38128 125 ft 1 kts 332°
2026-04-22 01:07 33.93289 -118.38125 124 ft 0 kts 354°
2026-04-22 01:08 33.93297 -118.38126 125 ft 2 kts 354°
2026-04-22 01:12 33.93318 -118.38128 127 ft 12 kts 356°
2026-04-22 01:12 33.93406 -118.38129 127 ft 13 kts 360°
2026-04-22 01:12 33.93466 -118.38129 127 ft 5 kts
2026-04-22 01:12 33.93489 -118.38129 126 ft 0 kts
2026-04-22 01:13 33.93506 -118.38129 127 ft 11 kts
2026-04-22 01:13 33.93593 -118.38139 127 ft 13 kts 332°
2026-04-22 01:14 33.93612 -118.38235 127 ft 11 kts 274°
2026-04-22 01:14 33.93628 -118.38262 124 ft 0 kts 329°
2026-04-22 01:14 33.93687 -118.38281 127 ft 13 kts 343°
2026-04-22 01:15 33.93726 -118.38363 125 ft 1 kts 262°
2026-04-22 01:18 33.93714 -118.38462 128 ft 39 kts 262°
2026-04-22 01:18 33.93647 -118.39124 127 ft 117 kts 262°
2026-04-22 01:18 33.93511 -118.40367 175 ft 175 kts 261°
2026-04-22 01:18 33.93346 -118.41800 935 ft 180 kts 263°
2026-04-22 01:19 33.93185 -118.43432 1231 ft 212 kts 264°
2026-04-22 01:19 33.93012 -118.45268 1890 ft 225 kts 265°
2026-04-22 01:19 33.92714 -118.47105 2560 ft 230 kts 253°
2026-04-22 01:19 33.92172 -118.48945 3250 ft 235 kts 250°
2026-04-22 01:20 33.91560 -118.50771 4048 ft 235 kts 248°
2026-04-22 01:20 33.90907 -118.52606 4803 ft 238 kts 247°
2026-04-22 01:20 33.90100 -118.54333 5471 ft 241 kts 228°
2026-04-22 01:20 33.88678 -118.55408 6168 ft 250 kts 199°
2026-04-22 01:21 33.86920 -118.55490 6817 ft 261 kts 171°
2026-04-22 01:21 33.85181 -118.54804 7481 ft 265 kts 163°
2026-04-22 01:21 33.83474 -118.53966 8204 ft 267 kts 156°
2026-04-22 01:21 33.82075 -118.52429 8768 ft 286 kts 123°
2026-04-22 01:22 33.81548 -118.50088 9364 ft 301 kts 90°
2026-04-22 01:22 33.82101 -118.47644 9929 ft 311 kts 57°
2026-04-22 01:22 33.83609 -118.45806 10440 ft 311 kts 25°
2026-04-22 01:22 33.85639 -118.45109 10993 ft 300 kts 352°
2026-04-22 01:23 33.87694 -118.45242 11374 ft 300 kts 356°
2026-04-22 01:23 33.89814 -118.44904 11787 ft 313 kts
2026-04-22 01:23 33.91918 -118.44153 12447 ft 322 kts 21°
2026-04-22 01:23 33.93771 -118.42574 13107 ft 334 kts 47°
2026-04-22 01:24 33.95143 -118.40293 13675 ft 340 kts 56°
2026-04-22 01:24 33.96439 -118.37870 14224 ft 347 kts 55°
2026-04-22 01:24 33.97772 -118.35428 14830 ft 351 kts 54°
2026-04-22 01:24 33.99142 -118.32977 15437 ft 354 kts 54°
2026-04-22 01:25 34.00533 -118.30514 16041 ft 358 kts 53°
2026-04-22 01:25 34.01924 -118.28059 16629 ft 361 kts 53°
2026-04-22 01:25 34.03351 -118.25545 17230 ft 366 kts 53°
2026-04-22 01:25 34.04805 -118.22984 17733 ft 374 kts 53°
2026-04-22 01:26 34.06280 -118.20378 18334 ft 378 kts 53°
2026-04-22 01:26 34.07763 -118.17753 18904 ft 380 kts 53°
2026-04-22 01:26 34.09260 -118.15106 19440 ft 383 kts 53°
2026-04-22 01:26 34.10768 -118.12441 19988 ft 386 kts 52°
2026-04-22 01:27 34.12293 -118.09742 20516 ft 389 kts 52°
2026-04-22 01:27 34.13301 -118.07955 20858 ft 391 kts 52°
2026-04-22 01:27 34.14842 -118.05224 21350 ft 394 kts 53°
2026-04-22 01:27 34.16388 -118.02481 21892 ft 397 kts 53°
2026-04-22 01:28 34.17950 -117.99707 22427 ft 400 kts 53°
2026-04-22 01:28 34.20041 -117.95987 23021 ft 408 kts 53°
2026-04-22 01:28 34.21122 -117.94064 23312 ft 412 kts 53°
2026-04-22 01:28 34.22747 -117.91170 23740 ft 418 kts 52°
2026-04-22 01:29 34.24390 -117.88251 24102 ft 422 kts 53°
2026-04-22 01:29 34.26047 -117.85291 24467 ft 427 kts 53°
2026-04-22 01:29 34.27719 -117.82301 24877 ft 432 kts 53°
2026-04-22 01:29 34.29409 -117.79279 25353 ft 435 kts 53°
2026-04-22 01:30 34.31108 -117.76240 25805 ft 437 kts 53°
2026-04-22 01:30 34.32815 -117.73185 26272 ft 439 kts 54°
2026-04-22 01:30 34.34509 -117.70147 26697 ft 443 kts 53°
2026-04-22 01:30 34.36263 -117.67057 27126 ft 447 kts 52°
2026-04-22 01:31 34.38082 -117.63991 27555 ft 450 kts 51°
2026-04-22 01:31 34.39931 -117.60926 27995 ft 452 kts 51°
2026-04-22 01:31 34.41799 -117.57837 28384 ft 456 kts 51°
2026-04-22 01:31 34.43678 -117.54721 28818 ft 460 kts 51°
2026-04-22 01:32 34.45569 -117.51569 29232 ft 465 kts 51°
2026-04-22 01:32 34.47474 -117.48381 29626 ft 469 kts 52°
2026-04-22 01:32 34.49391 -117.45164 30017 ft 473 kts 52°
2026-04-22 01:32 34.51326 -117.41909 30288 ft 479 kts 52°
2026-04-22 01:33 34.53283 -117.38609 30573 ft 484 kts 52°
2026-04-22 01:33 34.55252 -117.35285 30929 ft 486 kts 52°
2026-04-22 01:33 34.57230 -117.31944 31309 ft 488 kts 52°
2026-04-22 01:33 34.59214 -117.28591 31681 ft 490 kts 52°
2026-04-22 01:34 34.61207 -117.25221 32004 ft 493 kts 52°
2026-04-22 01:34 34.63212 -117.21828 32314 ft 496 kts 52°
2026-04-22 01:34 34.65228 -117.18414 32542 ft 499 kts 52°
2026-04-22 01:34 34.67255 -117.14978 32820 ft 501 kts 53°
2026-04-22 01:35 34.69296 -117.11513 32963 ft 508 kts 53°
2026-04-22 01:35 34.71354 -117.08022 32974 ft 509 kts 53°
2026-04-22 01:35 34.75529 -117.00915 33020 ft 523 kts 53°
2026-04-22 01:36 34.79813 -116.93606 33006 ft 539 kts 53°
2026-04-22 01:36 34.84226 -116.86066 33015 ft 553 kts 53°
2026-04-22 01:37 34.88720 -116.78370 33007 ft 561 kts 54°
2026-04-22 01:37 34.93345 -116.70822 32994 ft 557 kts 47°
2026-04-22 01:38 34.98595 -116.63904 32980 ft 555 kts 44°
2026-04-22 01:38 35.03905 -116.57049 32959 ft 555 kts 45°
2026-04-22 01:39 35.09175 -116.50148 32931 ft 556 kts 45°
2026-04-22 01:39 35.14431 -116.43192 32921 ft 557 kts 45°
2026-04-22 01:40 35.19697 -116.36198 32978 ft 560 kts 45°
2026-04-22 01:40 35.24977 -116.29179 32939 ft 561 kts 45°
2026-04-22 01:41 35.30237 -116.22178 32921 ft 562 kts 46°
2026-04-22 01:41 35.35523 -116.15121 32924 ft 563 kts 46°
2026-04-22 01:42 35.40829 -116.08030 32938 ft 565 kts 46°
2026-04-22 01:42 35.46153 -116.00897 32937 ft 567 kts 46°
2026-04-22 01:43 35.51478 -115.93746 32880 ft 567 kts 46°
2026-04-22 01:43 35.56771 -115.86620 32941 ft 563 kts 46°
2026-04-22 01:44 35.62036 -115.79523 32936 ft 561 kts 46°
2026-04-22 01:44 35.67223 -115.72471 32948 ft 559 kts 47°
2026-04-22 01:45 35.72402 -115.65341 32931 ft 558 kts 47°
2026-04-22 01:45 35.77567 -115.58213 32936 ft 558 kts 47°
2026-04-22 01:46 35.82737 -115.51078 32958 ft 559 kts 47°
2026-04-22 01:46 35.87923 -115.43919 32932 ft 560 kts 47°
2026-04-22 01:47 35.93095 -115.36740 32912 ft 559 kts 47°
2026-04-22 01:47 35.98233 -115.29605 32866 ft 559 kts 47°
2026-04-22 01:48 36.03393 -115.22422 32841 ft 559 kts 49°
2026-04-22 01:48 36.07885 -115.14607 32846 ft 558 kts 61°
2026-04-22 01:49 36.11216 -115.05976 32842 ft 555 kts 72°
2026-04-22 01:49 36.13848 -114.97006 32755 ft 555 kts 73°
2026-04-22 01:50 36.16531 -114.88053 32753 ft 555 kts 72°
2026-04-22 01:50 36.19268 -114.79110 32760 ft 556 kts 72°
2026-04-22 01:51 36.22018 -114.70160 32745 ft 556 kts 72°
2026-04-22 01:51 36.24748 -114.61271 32726 ft 556 kts 72°
2026-04-22 01:52 36.27472 -114.52314 32722 ft 556 kts 72°
2026-04-22 01:52 36.30193 -114.43358 32720 ft 555 kts 72°
2026-04-22 01:53 36.32909 -114.34398 32712 ft 554 kts 72°
2026-04-22 01:53 36.35610 -114.25464 32725 ft 552 kts 72°
2026-04-22 01:54 36.38296 -114.16544 32730 ft 551 kts 72°
2026-04-22 01:54 36.40971 -114.07630 32740 ft 550 kts 72°
2026-04-22 01:55 36.43617 -113.98785 32761 ft 550 kts 72°
2026-04-22 01:55 36.46274 -113.89876 32761 ft 550 kts 72°
2026-04-22 01:56 36.48926 -113.80957 32776 ft 551 kts 73°
2026-04-22 01:56 36.51574 -113.72017 32764 ft 551 kts 73°
2026-04-22 01:57 36.54219 -113.63078 32794 ft 551 kts 73°
2026-04-22 01:57 36.56856 -113.54115 32809 ft 551 kts 73°
2026-04-22 01:58 36.59479 -113.45171 32824 ft 550 kts 73°
2026-04-22 01:58 36.62096 -113.36235 32832 ft 548 kts 73°
2026-04-22 01:59 36.64689 -113.27312 32842 ft 547 kts 73°
2026-04-22 01:59 36.67265 -113.18379 32874 ft 547 kts 73°
2026-04-22 02:00 36.69827 -113.09460 32897 ft 547 kts 73°
2026-04-22 02:00 36.72372 -113.00583 32931 ft 547 kts 73°
2026-04-22 02:01 36.74929 -112.91637 32943 ft 548 kts 73°
2026-04-22 02:01 36.77482 -112.82672 32931 ft 548 kts 73°
2026-04-22 02:02 36.80027 -112.73711 32912 ft 548 kts 73°
2026-04-22 02:02 36.82560 -112.64759 32899 ft 547 kts 73°
2026-04-22 02:03 36.85085 -112.55802 32895 ft 546 kts 74°
2026-04-22 02:03 36.87600 -112.46857 32894 ft 546 kts 74°
2026-04-22 02:04 36.91357 -112.33478 32905 ft 543 kts 73°
2026-04-22 02:05 36.93835 -112.24638 32915 ft 541 kts 74°
2026-04-22 02:05 36.96316 -112.15762 32904 ft 540 kts 74°
2026-04-22 02:06 36.98782 -112.06904 32904 ft 539 kts 73°
2026-04-22 02:06 37.01237 -111.98058 32872 ft 537 kts 74°
2026-04-22 02:07 37.03683 -111.89220 32863 ft 537 kts 73°
2026-04-22 02:07 37.06119 -111.80379 32860 ft 538 kts 74°
2026-04-22 02:08 37.08536 -111.71580 32824 ft 537 kts 73°
2026-04-22 02:08 37.10964 -111.62719 32831 ft 537 kts 73°
2026-04-22 02:09 37.13378 -111.53857 32858 ft 537 kts 73°
2026-04-22 02:09 37.15792 -111.45006 32870 ft 537 kts 74°
2026-04-22 02:10 37.18196 -111.36139 32847 ft 536 kts 74°
2026-04-22 02:10 37.20587 -111.27273 32820 ft 537 kts 74°
2026-04-22 02:11 37.23311 -111.18535 32808 ft 540 kts 65°
2026-04-22 02:11 37.26707 -111.10120 32791 ft 540 kts 64°
2026-04-22 02:12 37.30109 -111.01756 32797 ft 535 kts 64°
2026-04-22 02:12 37.33445 -110.93422 32789 ft 533 kts 65°
2026-04-22 02:13 37.36717 -110.85154 32784 ft 531 kts 65°
2026-04-22 02:13 37.39986 -110.76851 32779 ft 529 kts 65°
2026-04-22 02:14 37.43246 -110.68551 32782 ft 528 kts 64°
2026-04-22 02:14 37.46504 -110.60276 32798 ft 527 kts 65°
2026-04-22 02:15 37.49746 -110.51983 32797 ft 528 kts 65°
2026-04-22 02:15 37.52989 -110.43683 32806 ft 528 kts 64°
2026-04-22 02:16 37.55683 -110.36773 32819 ft 528 kts 64°
2026-04-22 02:16 37.59437 -110.27107 32824 ft 528 kts 64°
2026-04-22 02:17 37.62662 -110.18778 32832 ft 528 kts 65°
2026-04-22 02:17 37.65354 -110.11812 32834 ft 526 kts 64°
2026-04-22 02:18 37.68531 -110.03569 32860 ft 525 kts 64°
2026-04-22 02:18 37.71718 -109.95280 32858 ft 524 kts 64°
2026-04-22 02:19 37.74896 -109.86995 32875 ft 523 kts 64°
2026-04-22 02:19 37.78064 -109.78710 32886 ft 523 kts 64°
2026-04-22 02:20 37.81217 -109.70443 32884 ft 521 kts 64°
2026-04-22 02:20 37.84352 -109.62200 32934 ft 519 kts 64°
2026-04-22 02:21 37.87479 -109.53957 32923 ft 519 kts 64°
2026-04-22 02:21 37.90574 -109.45772 32909 ft 518 kts 64°
2026-04-22 02:22 37.93677 -109.37547 32896 ft 517 kts 64°
2026-04-22 02:22 37.96770 -109.29331 32915 ft 517 kts 65°
2026-04-22 02:23 37.99863 -109.21087 32907 ft 517 kts 65°
2026-04-22 02:23 38.02947 -109.12846 32903 ft 518 kts 65°
2026-04-22 02:24 38.06027 -109.04592 32900 ft 517 kts 65°
2026-04-22 02:24 38.09100 -108.96340 32888 ft 517 kts 65°
2026-04-22 02:25 38.12202 -108.88166 32889 ft 517 kts 64°
2026-04-22 02:25 38.15457 -108.79959 32882 ft 517 kts 63°
2026-04-22 02:26 38.18667 -108.71867 32885 ft 516 kts 64°
2026-04-22 02:26 38.21871 -108.63702 32896 ft 515 kts 64°
2026-04-22 02:27 38.25052 -108.55545 32913 ft 514 kts 64°
2026-04-22 02:27 38.28228 -108.47379 32905 ft 514 kts 64°
2026-04-22 02:28 38.31397 -108.39216 32922 ft 513 kts 64°
2026-04-22 02:28 38.34554 -108.31063 32916 ft 513 kts 64°
2026-04-22 02:29 38.37683 -108.22961 32948 ft 513 kts 64°
2026-04-22 02:29 38.40822 -108.14806 32983 ft 512 kts 64°
2026-04-22 02:30 38.43959 -108.06640 33024 ft 512 kts 64°
2026-04-22 02:30 38.47086 -107.98470 33055 ft 512 kts 65°
2026-04-22 02:31 38.50183 -107.90281 33060 ft 513 kts 65°
2026-04-22 02:31 38.53275 -107.82069 33060 ft 513 kts 65°
2026-04-22 02:31 38.54822 -107.77955 32907 ft 513 kts 65°
2026-04-22 02:32 38.56369 -107.73841 32929 ft 514 kts 65°
2026-04-22 02:32 38.59460 -107.65601 32910 ft 514 kts 65°
2026-04-22 02:33 38.62523 -107.57416 32944 ft 513 kts 65°
2026-04-22 02:33 38.65597 -107.49178 32942 ft 513 kts 65°
2026-04-22 02:34 38.68701 -107.40953 32965 ft 513 kts 65°
2026-04-22 02:34 38.71819 -107.32738 32991 ft 513 kts 65°
2026-04-22 02:35 38.74928 -107.24518 33001 ft 512 kts 65°
2026-04-22 02:35 38.78024 -107.16291 33016 ft 513 kts 65°
2026-04-22 02:36 38.81113 -107.08053 33017 ft 512 kts 65°
2026-04-22 02:36 38.84195 -106.99813 33015 ft 512 kts 65°
2026-04-22 02:37 38.87252 -106.91619 33023 ft 512 kts 65°
2026-04-22 02:37 38.90320 -106.83372 33042 ft 512 kts 65°
2026-04-22 02:38 38.93382 -106.75115 33069 ft 512 kts 65°
2026-04-22 02:38 38.96438 -106.66857 33061 ft 511 kts 65°
2026-04-22 02:38 38.97946 -106.62775 33064 ft 500 kts 65°
2026-04-22 02:39 38.99416 -106.58790 32950 ft 490 kts 65°
2026-04-22 02:39 39.00872 -106.54836 32503 ft 486 kts 66°
2026-04-22 02:39 39.02303 -106.50931 32083 ft 481 kts 66°
2026-04-22 02:39 39.03723 -106.47047 31632 ft 478 kts 66°
2026-04-22 02:40 39.05132 -106.43187 31199 ft 475 kts 66°
2026-04-22 02:40 39.06528 -106.39355 30739 ft 471 kts 66°
2026-04-22 02:40 39.07912 -106.35556 30330 ft 467 kts 66°
2026-04-22 02:40 39.09286 -106.31778 29795 ft 464 kts 66°
2026-04-22 02:41 39.10650 -106.28027 29309 ft 461 kts 66°
2026-04-22 02:41 39.11990 -106.24337 28829 ft 458 kts 66°
2026-04-22 02:41 39.13333 -106.20634 28377 ft 454 kts 66°
2026-04-22 02:41 39.14663 -106.16961 27897 ft 451 kts 66°
2026-04-22 02:42 39.15982 -106.13309 27408 ft 448 kts 66°
2026-04-22 02:42 39.17286 -106.09686 26945 ft 444 kts 66°
2026-04-22 02:42 39.18582 -106.06080 26463 ft 441 kts 66°
2026-04-22 02:42 39.19866 -106.02502 25991 ft 438 kts 66°
2026-04-22 02:43 39.21141 -105.98946 25521 ft 436 kts 66°
2026-04-22 02:43 39.22405 -105.95417 25051 ft 433 kts 66°
2026-04-22 02:43 39.23666 -105.91894 24513 ft 430 kts 66°
2026-04-22 02:43 39.24920 -105.88399 24083 ft 429 kts 66°
2026-04-22 02:44 39.26176 -105.84918 23649 ft 427 kts 66°
2026-04-22 02:44 39.27428 -105.81448 23158 ft 425 kts 66°
2026-04-22 02:44 39.28671 -105.77996 22682 ft 422 kts 66°
2026-04-22 02:44 39.29885 -105.74619 22247 ft 419 kts 67°
2026-04-22 02:45 39.31104 -105.71221 21823 ft 415 kts 66°
2026-04-22 02:45 39.32302 -105.67880 21685 ft 405 kts 67°
2026-04-22 02:45 39.33492 -105.64587 21264 ft 402 kts 67°
2026-04-22 02:45 39.34684 -105.61331 20839 ft 400 kts 66°
2026-04-22 02:46 39.35855 -105.58133 20421 ft 388 kts 66°
2026-04-22 02:46 39.37002 -105.54993 20044 ft 385 kts 66°
2026-04-22 02:46 39.38140 -105.51869 19639 ft 384 kts 66°
2026-04-22 02:46 39.39272 -105.48759 19277 ft 380 kts 66°
2026-04-22 02:47 39.40376 -105.45722 19116 ft 364 kts 66°
2026-04-22 02:47 39.41434 -105.42813 18958 ft 353 kts 66°
2026-04-22 02:47 39.42613 -105.40052 18748 ft 348 kts 57°
2026-04-22 02:47 39.43995 -105.37512 18538 ft 342 kts 54°
2026-04-22 02:48 39.45390 -105.35087 18292 ft 338 kts 55°
2026-04-22 02:48 39.46799 -105.32616 18073 ft 338 kts 56°
2026-04-22 02:48 39.48182 -105.30133 17844 ft 342 kts 56°
2026-04-22 02:48 39.49548 -105.27645 17613 ft 344 kts 55°
2026-04-22 02:49 39.50942 -105.25084 17395 ft 342 kts 55°
2026-04-22 02:49 39.52307 -105.22565 17171 ft 341 kts 55°
2026-04-22 02:49 39.53662 -105.20059 16939 ft 339 kts 56°
2026-04-22 02:49 39.54866 -105.17506 16817 ft 333 kts 63°
2026-04-22 02:50 39.55876 -105.14841 16750 ft 329 kts 66°
2026-04-22 02:50 39.56836 -105.12127 16655 ft 332 kts 66°
2026-04-22 02:50 39.57799 -105.09388 16529 ft 336 kts 66°
2026-04-22 02:50 39.58779 -105.06630 16400 ft 336 kts 66°
2026-04-22 02:51 39.59766 -105.03882 16271 ft 336 kts 66°
2026-04-22 02:51 39.60757 -105.01142 16141 ft 335 kts 66°
2026-04-22 02:51 39.61749 -104.98413 16124 ft 334 kts 65°
2026-04-22 02:51 39.62740 -104.95691 16014 ft 333 kts 65°
2026-04-22 02:52 39.63729 -104.92973 15877 ft 332 kts 65°
2026-04-22 02:52 39.64715 -104.90266 15754 ft 331 kts 66°
2026-04-22 02:52 39.65699 -104.87563 15621 ft 331 kts 66°
2026-04-22 02:52 39.66681 -104.84860 15476 ft 331 kts 66°
2026-04-22 02:53 39.67650 -104.82196 15344 ft 331 kts 66°
2026-04-22 02:53 39.68630 -104.79493 15220 ft 330 kts 66°
2026-04-22 02:53 39.69655 -104.76857 15045 ft 324 kts 57°
2026-04-22 02:53 39.71153 -104.74663 14784 ft 325 kts 43°
2026-04-22 02:54 39.72808 -104.72657 14524 ft 325 kts 44°
2026-04-22 02:54 39.74427 -104.70608 14259 ft 325 kts 45°
2026-04-22 02:54 39.76024 -104.68539 14002 ft 323 kts 46°
2026-04-22 02:54 39.77607 -104.66472 13715 ft 323 kts 46°
2026-04-22 02:55 39.79056 -104.64274 13406 ft 318 kts 57°
2026-04-22 02:55 39.80237 -104.61855 13158 ft 316 kts 60°
2026-04-22 02:55 39.81378 -104.59424 12887 ft 314 kts 60°
2026-04-22 02:55 39.82534 -104.57029 12614 ft 311 kts 59°
2026-04-22 02:56 39.83712 -104.54687 12334 ft 306 kts 52°
2026-04-22 02:56 39.85317 -104.52928 12062 ft 303 kts 24°
2026-04-22 02:56 39.87345 -104.52201 11873 ft 303 kts
2026-04-22 02:56 39.89425 -104.52152 11641 ft 296 kts 358°
2026-04-22 02:57 39.91455 -104.52154 11318 ft 285 kts 358°
2026-04-22 02:57 39.93387 -104.52149 11026 ft 273 kts 358°
2026-04-22 02:57 39.95282 -104.52139 10758 ft 270 kts 358°
2026-04-22 02:57 39.97148 -104.52119 10442 ft 268 kts 358°
2026-04-22 02:58 39.98999 -104.52145 10154 ft 263 kts 352°
2026-04-22 02:58 40.00724 -104.52813 9840 ft 258 kts 326°
2026-04-22 02:58 40.02013 -104.54395 9579 ft 255 kts 299°
2026-04-22 02:58 40.02729 -104.56464 9303 ft 254 kts 279°
2026-04-22 02:59 40.02876 -104.58720 9015 ft 246 kts 263°
2026-04-22 02:59 40.02790 -104.60933 8743 ft 242 kts 257°
2026-04-22 02:59 40.02261 -104.62958 8484 ft 233 kts 234°
2026-04-22 02:59 40.01213 -104.64505 8286 ft 223 kts 215°
2026-04-22 03:00 39.99915 -104.65490 8026 ft 209 kts 198°
2026-04-22 03:00 39.98583 -104.65875 7817 ft 184 kts 184°
2026-04-22 03:00 39.97357 -104.65904 7604 ft 173 kts 181°
2026-04-22 03:00 39.96161 -104.65914 7433 ft 170 kts 182°
2026-04-22 03:01 39.94987 -104.65926 7241 ft 168 kts 181°
2026-04-22 03:01 39.93809 -104.65934 7024 ft 171 kts 180°
2026-04-22 03:01 39.92622 -104.65943 6813 ft 170 kts 182°
2026-04-22 03:01 39.91459 -104.65955 6589 ft 164 kts 182°
2026-04-22 03:02 39.90294 -104.65968 6400 ft 169 kts 181°
2026-04-22 03:02 39.89076 -104.65983 6114 ft 181 kts 180°
2026-04-22 03:02 39.87851 -104.65971 5946 ft 171 kts 178°
2026-04-22 03:02 39.86712 -104.65993 5595 ft 157 kts 180°
2026-04-22 03:03 39.85656 -104.66016 5395 ft 143 kts 180°
2026-04-22 03:03 39.84966 -104.66026 5379 ft 49 kts 181°
2026-04-22 03:03 39.84604 -104.66034 5380 ft 56 kts 181°
2026-04-22 03:03 39.84203 -104.66070 5375 ft 43 kts 194°
2026-04-22 03:04 39.84047 -104.66173 5373 ft 15 kts 209°
2026-04-22 03:04 39.83902 -104.66250 5370 ft 27 kts 188°
2026-04-22 03:04 39.83714 -104.66255 5368 ft 27 kts 180°
2026-04-22 03:04 39.83525 -104.66256 5368 ft 27 kts 180°
2026-04-22 03:05 39.83337 -104.66260 5366 ft 27 kts 181°
2026-04-22 03:05 39.83148 -104.66263 5368 ft 27 kts 180°
2026-04-22 03:05 39.82999 -104.66265 5364 ft 9 kts 180°
2026-04-22 03:05 39.82941 -104.66328 5365 ft 18 kts 256°
2026-04-22 03:06 39.82934 -104.66539 5379 ft 29 kts 269°
2026-04-22 03:06 39.82934 -104.66846 5391 ft 35 kts 269°
2026-04-22 03:06 39.82938 -104.67105 5391 ft 28 kts 283°
2026-04-22 03:06 39.82993 -104.67348 5391 ft 28 kts 266°
2026-04-22 03:07 39.82999 -104.67517 5387 ft 28 kts 283°
2026-04-22 03:07 39.83014 -104.67768 5390 ft 27 kts 269°
2026-04-22 03:07 39.83012 -104.67977 5388 ft 14 kts 269°
2026-04-22 03:07 39.83076 -104.68047 5383 ft 0 kts 17°
2026-04-22 03:08 39.83079 -104.68044 5376 ft 3 kts 31°
2026-04-22 03:08 39.83105 -104.68023 5382 ft 0 kts